Cloud_Cover
0 0 0 0 0 0 0 0 0 1 5 5 0 0 0 10 54 24 86 100 89 59 1 2 27 100 100 100 100 95 15 0 0 0 1 2 12 7 3 0 2 86 26 8 5 73 7 2 0
5 5 2 0 0 0 0 0 0 0 0 0 0 0 0 2 77 100 56 6 0 8 25 12 12 100 100 100 100 61 18 0 0 0 1 4 4 5 4 6 0 27 21 35 86 100 15 1 0
92 67 48 5 0 0 0 3 0 0 0 0 0 0 0 1 0 5 4 5 0 0 3 64 2 99 90 100 96 20 6 0 0 0 0 8 8 60 14 76 12 0 1 45 95 100 7 0 0
87 6 34 0 0 0 20 23 5 4 2 0 0 0 0 0 0 0 50 13 4 21 12 2 2 0 11 84 99 3 0 0 0 0 0 11 5 23 100 100 10 2 5 5 97 24 4 0 0
69 2 5 4 0 0 25 95 100 29 1 0 0 0 0 0 0 0 0 6 5 25 51 11 5 5 1 0 3 61 0 0 0 0 0 6 16 59 95 85 99 50 4 5 32 5 5 5 0
26 2 2 5 27 5 2 46 69 61 93 93 3 0 0 0 0 0 0 5 0 0 2 36 12 4 30 0 0 0 0 0 1 3 4 13 100 100 99 80 65 100 97 100 94 6 5 5 5
100 80 83 82 54 5 2 0 4 94 38 48 97 7 0 0 2 4 5 4 0 0 2 12 29 67 5 84 83 22 21 31 27 5 43 91 100 100 100 74 40 32 100 100 100 6 16 72 5
84 100 100 100 87 12 5 5 6 40 22 9 6 98 95 13 5 5 5 0 0 0 5 5 38 100 96 91 32 58 100 100 100 97 91 100 100 100 22 2 5 5 7 100 100 100 100 100 14
94 100 100 100 100 48 5 8 68 32 85 71 15 8 54 97 30 5 5 5 3 1 5 5 0 51 100 100 85 89 58 100 100 100 100 100 100 98 23 5 4 5 14 56 100 100 100 100 88
1 5 17 47 92 100 42 5 5 4 5 5 19 8 5 16 5 5 5 2 5 5 0 0 0 0 50 100 100 77 100 99 100 100 100 100 100 100 100 84 5 5 5 59 72 100 100 100 100
0 0 1 7 53 100 45 1 5 1 0 4 4 2 5 5 5 3 5 9 0 0 4 0 0 0 1 40 100 81 90 100 85 100 100 100 100 100 100 100 94 9 6 28 85 71 100 100 100
0 0 0 0 15 4 0 0 0 0 0 0 5 4 4 1 2 0 2 5 98 13 5 5 1 0 5 28 12 98 86 89 86 80 100 100 80 96 54 100 93 91 17 65 64 93 98 100 100
5 4 2 0 0 1 1 0 0 0 0 0 0 0 0 0 0 2 5 23 75 100 100 9 20 5 5 20 3 54 100 100 99 92 100 86 87 100 74 68 99 97 100 83 28 20 100 100 100
0 0 0 1 2 1 2 0 1 0 0 0 0 0 0 0 0 0 0 0 7 50 87 96 26 5 2 19 5 5 91 47 82 100 100 74 67 59 100 64 24 97 100 100 100 90 77 100 100
0 0 0 0 0 0 0 3 0 0 0 0 0 0 0 0 0 0 0 0 0 0 0 0 0 0 0 11 6 12 48 43 67 77 100 100 100 100 100 92 61 6 76 100 100 100 100 100 100
0 0 0 0 0 0 0 0 0 0 0 0 0 0 0 0 0 0 0 0 0 0 0 0 0 0 0 48 4 23 91 65 99 38 27 100 75 100 100 100 99 48 80 100 100 100 100 100 100
0 2 0 0 0 0 0 0 0 0 0 0 0 0 0 0 0 0 0 0 0 0 0 0 0 0 0 7 29 40 38 63 100 75 43 47 92 100 100 97 100 100 100 100 100 100 100 100 100
0 0 0 2 0 0 0 0 0 0 0 0 0 0 0 0 0 0 0 0 0 0 0 0 0 0 0 94 100 100 92 60 94 100 37 94 42 100 94 100 100 100 100 100 100 100 100 100 100
0 0 0 0 0 0 0 0 0 0 0 0 0 0 0 0 0 0 0 0 0 0 0 0 0 1 41 100 92 100 100 100 100 100 30 32 29 86 95 100 100 100 100 100 100 100 100 100 100
0 0 2 0 0 0 0 0 0 0 0 0 0 0 0 0 0 0 0 0 0 0 0 0 0 6 22 1 0 8 100 99 34 100 100 81 99 95 100 100 100 100 100 100 100 100 100 100 100
0 0 0 0 0 0 0 0 0 0 0 0 0 0 0 0 0 0 0 0 0 0 0 0 0 1 0 0 72 99 100 100 100 100 100 100 100 94 100 100 100 100 100 100 100 100 100 100 100
5 0 0 0 2 5 1 5 0 0 0 0 0 0 0 0 0 1 0 0 0 0 0 0 0 0 0 0 83 100 53 96 100 98 100 100 100 100 96 100 100 100 100 100 100 100 100 100 100
0 0 0 0 9 58 5 64 0 0 0 0 0 0 0 0 0 0 0 0 0 0 0 0 0 0 0 0 11 100 44 4 29 90 60 100 100 52 100 100 100 100 100 100 100 100 100 100 100
0 0 0 5 16 34 1 2 0 0 0 0 0 0 0 0 0 0 2 0 0 0 0 0 0 0 0 0 20 88 62 21 78 100 100 96 59 100 100 100 100 100 100 100 100 100 100 100 100
0 0 5 2 4 0 1 9 5 0 0 0 0 0 0 0 0 4 5 0 1 5 4 27 4 4 0 0 8 28 100 64 46 58 100 100 45 100 100 55 100 74 100 100 100 100 100 100 100
0 0 4 0 5 3 0 5 6 0 0 0 0 0 0 0 5 5 0 5 5 68 76 100 60 3 4 6 48 51 100 87 48 46 100 98 1 96 100 100 97 100 100 100 100 100 100 100 100
5 5 0 5 8 94 5 0 0 0 0 3 0 0 0 73 22 5 5 28 10 81 36 100 14 5 52 58 66 64 100 100 100 100 55 12 38 11 100 100 100 100 99 100 100 100 100 100 100
5 5 5 11 71 44 5 4 1 0 0 5 0 0 19 61 5 26 59 75 69 100 100 100 100 100 100 99 84 100 100 100 100 100 84 94 60 100 100 100 100 100 98 99 100 100 100 100 100
89 5 23 43 54 86 92 20 1 0 3 0 1 85 74 96 98 94 100 41 100 100 100 96 100 100 100 100 100 100 100 100 100 100 100 98 98 100 100 100 100 100 100 66 100 100 100 100 100
93 18 98 75 27 99 100 18 5 0 5 2 93 98 100 100 69 93 88 58 100 100 82 100 100 100 100 100 100 100 100 100 100 100 100 100 100 100 100 100 100 100 100 45 100 100 100 100 100